Du Bois, PA

1:09 PM EST on December 16, 2017 (GMT -0500)
Du Bois-Jefferson County

Weather History for KDUJ - October, 2012

Change the Weather History Date:

Friday, October 19, 2012

  Actual Average Record
Temperature  
Mean Temperature 52 °F 48 °F  
Max Temperature 64 °F 58 °F 77 °F (1963)
Min Temperature 40 °F 39 °F 20 °F (1974)
Degree Days  
Heating Degree Days 13 17  
Month to date heating degree days 259 271  
Since 1 July heating degree days 482 517  
Cooling Degree Days 0 0  
Month to date cooling degree days 2 0  
Year to date cooling degree days 547 360  
Growing Degree Days 2 (Base 50)    
Moisture  
Dew Point 39 °F    
Average Humidity 65    
Maximum Humidity 100    
Minimum Humidity 30    
Precipitation  
Precipitation 0.04 in 0.09 in 0.87 in (1996)
Month to date precipitation 1.10 1.92  
Year to date precipitation 35.16  
Sea Level Pressure  
Sea Level Pressure 29.75 in    
Wind  
Wind Speed 5 mph (ESE)    
Max Wind Speed 24 mph    
Max Gust Speed 31 mph    
Visibility 5 miles    
Events Fog    
T = Trace of Precipitation, MM = Missing Value Source: NWS Daily Summary

Daily Weather History Graph

Daily Weather History Graph

Search for Another Location

Airport or City:

Trip Planner

Search our weather history database for the weather conditions in past years. The results will help you decide how hot, cold, wet, or windy it might be!

Date:

Astronomy

Oct. 19, 2012 Rise Set
Actual Time 7:32 AM EDT 6:28 PM EDT
Civil Twilight 7:04 AM EDT 6:55 PM EDT
Nautical Twilight 6:32 AM EDT 7:28 PM EDT
Astronomical Twilight 6:00 AM EDT 7:59 PM EDT
Moon 12:15 PM EDT (10/19) 10:02 PM EDT (10/19)
Length of Visible Light 11h 51m
Length of Day
10h 55m
Waxing Crescent, 23% of the Moon is Illuminated
Oct 19
Waxing Crescent
Oct 21
First Quarter
Oct 29
Full
Nov 6
Last Quarter
Nov 13
New

Hourly Weather History & Observations

Time (EDT) Temp. Windchill Dew Point Humidity Pressure Visibility Wind Dir Wind Speed Gust Speed Precip Events Conditions
12:27 AM 42.8 °F 40.1 °F 39.2 °F 87% 29.81 in 1.5 mi East 4.6 mph - N/A   Partly Cloudy
12:30 AM 42.8 °F 40.1 °F 39.2 °F 87% 29.81 in 0.8 mi East 4.6 mph - N/A   Mist
1:02 AM 42.8 °F 41.1 °F 39.2 °F 87% 29.82 in 1.2 mi SSE 3.5 mph - N/A   Partly Cloudy
1:07 AM 42.8 °F - 41.0 °F 93% 29.82 in 3.0 mi Calm Calm - N/A   Partly Cloudy
1:56 AM 43.0 °F 38.2 °F 41.0 °F 93% 29.82 in 10.0 mi ESE 8.1 mph - N/A   Clear
2:29 AM 42.8 °F 40.1 °F 39.2 °F 87% 29.80 in 1.5 mi East 4.6 mph - N/A   Partly Cloudy
2:31 AM 41.0 °F 38.0 °F 39.2 °F 93% 29.80 in 0.8 mi East 4.6 mph - N/A   Mist
2:41 AM 41.0 °F 37.1 °F 39.2 °F 93% 29.79 in 0.2 mi ENE 5.8 mph - N/A Fog Fog
2:56 AM 39.9 °F 37.8 °F 39.0 °F 97% 29.80 in 0.2 mi East 3.5 mph - N/A Fog Fog
3:12 AM 42.8 °F 39.3 °F 41.0 °F 93% 29.80 in 1.0 mi ESE 5.8 mph - N/A   Mist
3:16 AM 42.8 °F 38.6 °F 42.8 °F 100% 29.80 in 8.0 mi East 6.9 mph - N/A   Scattered Clouds
3:56 AM 43.0 °F 41.3 °F 42.1 °F 97% 29.80 in 9.0 mi SE 3.5 mph - N/A   Overcast
4:05 AM 42.8 °F 39.3 °F 41.0 °F 93% 29.79 in 1.8 mi East 5.8 mph - N/A   Overcast
4:09 AM 41.0 °F 37.1 °F 39.2 °F 93% 29.78 in 0.8 mi East 5.8 mph - N/A   Overcast
4:23 AM 41.0 °F 36.4 °F 39.2 °F 93% 29.78 in 0.2 mi East 6.9 mph - N/A Fog Fog
4:56 AM 41.0 °F 39.0 °F 39.9 °F 96% 29.78 in 0.2 mi ESE 3.5 mph - N/A Fog Fog
5:07 AM 41.0 °F - 39.2 °F 93% 29.77 in 0.5 mi Calm Calm - N/A Fog Fog
5:19 AM 41.0 °F 38.0 °F 39.2 °F 93% 29.78 in 2.0 mi East 4.6 mph - N/A   Mostly Cloudy
5:43 AM 41.0 °F 38.0 °F 39.2 °F 93% 29.76 in 1.5 mi East 4.6 mph - N/A   Mostly Cloudy
5:46 AM 41.0 °F 38.0 °F 39.2 °F 93% 29.77 in 0.8 mi East 4.6 mph - N/A   Mostly Cloudy
5:56 AM 41.0 °F 39.0 °F 39.9 °F 96% 29.78 in 0.5 mi ESE 3.5 mph - N/A Fog Fog
6:03 AM 42.8 °F 41.1 °F 41.0 °F 93% 29.77 in 1.0 mi East 3.5 mph - N/A   Mostly Cloudy
6:15 AM 41.0 °F 37.1 °F 39.2 °F 93% 29.76 in 2.5 mi East 5.8 mph - N/A   Overcast
6:22 AM 41.0 °F 37.1 °F 39.2 °F 93% 29.76 in 3.0 mi East 5.8 mph - N/A   Overcast
6:24 AM 41.0 °F 36.4 °F 39.2 °F 93% 29.76 in 1.8 mi East 6.9 mph - N/A   Overcast
6:30 AM 39.2 °F 35.0 °F 39.2 °F 100% 29.75 in 0.5 mi East 5.8 mph - N/A Fog Fog
6:46 AM 41.0 °F - 41.0 °F 100% 29.76 in 2.0 mi Calm Calm - N/A   Overcast
6:52 AM 41.0 °F 39.0 °F 39.2 °F 93% 29.76 in 6.0 mi SE 3.5 mph - N/A   Overcast
6:56 AM 42.1 °F 40.2 °F 39.9 °F 92% 29.78 in 8.0 mi SE 3.5 mph - N/A   Overcast
7:56 AM 44.1 °F 40.1 °F 43.0 °F 96% 29.76 in 10.0 mi SE 6.9 mph - 0.04 in   Mostly Cloudy
8:56 AM 45.0 °F 41.8 °F 44.1 °F 97% 29.77 in 10.0 mi SE 5.8 mph - N/A   Scattered Clouds
9:15 AM 46.4 °F 44.3 °F 44.6 °F 93% 29.76 in 10.0 mi SE 4.6 mph - N/A   Mostly Cloudy
9:56 AM 48.9 °F - 46.0 °F 90% 29.76 in 10.0 mi Calm Calm - N/A   Scattered Clouds
10:56 AM 53.1 °F - 46.9 °F 80% 29.75 in 10.0 mi SSE 5.8 mph - N/A   Scattered Clouds
11:56 AM 57.9 °F - 44.1 °F 60% 29.73 in 10.0 mi Variable 4.6 mph - N/A   Clear
12:56 PM 61.0 °F - 39.0 °F 44% 29.69 in 10.0 mi SW 8.1 mph - N/A   Clear
1:56 PM 61.0 °F - 33.1 °F 35% 29.66 in 10.0 mi Variable 5.8 mph - N/A   Clear
3:56 PM 64.0 °F - 32.0 °F 30% 29.62 in 10.0 mi Variable 5.8 mph - N/A   Mostly Cloudy
5:56 PM 59.0 °F - 33.1 °F 38% 29.62 in 10.0 mi Calm Calm - N/A   Partly Cloudy
6:56 PM 54.0 °F - 35.1 °F 49% 29.63 in 10.0 mi East 4.6 mph - N/A   Scattered Clouds
7:56 PM 55.9 °F - 34.0 °F 44% 29.63 in 10.0 mi Calm Calm - N/A   Mostly Cloudy
8:56 PM 55.0 °F - 33.1 °F 43% 29.64 in 10.0 mi WSW 3.5 mph - N/A   Overcast
10:56 PM 54.0 °F - 36.0 °F 51% 29.65 in 10.0 mi SW 9.2 mph - N/A   Mostly Cloudy
11:56 PM 52.0 °F - 36.0 °F 54% 29.67 in 10.0 mi SW 18.4 mph 26.5 mph N/A   Mostly Cloudy